Tracking 30986 objects as of 9-Jul-2025
HD Live streaming from Space Station
objects crossing your sky now

OBJECT B

Track OBJECT B now!
10-day predictions


NORAD ID: 56158
Int'l Code: 2023-048B
Perigee: 871.9 km
Apogee: 1,152.3 km
Inclination: 63.4 °
Period: 105.2 minutes
Semi major axis: 7383 km
RCS: Unknown
Launch date: March 31, 2023
Source: People's Republic of China (PRC)
Launch site: Jiuquan Satellite Launch Center, China (JSC)
Your satellite tracking list
Your tracking list is empty




NASA's NSSDC Master Catalog

Two Line Element Set (TLE):
1 56158U 23048B   25189.96979917 -.00000070  00000-0  27249-4 0  9990
2 56158  63.4056 172.7719 0189873  28.1559 332.9590 13.68507522113679
Source of the keplerian elements: AFSPC